User: anonymous   Login
Location: Newark
(47.3150°N, 5.1150°E)
Time: 14:53:10
(UTC+00:00)
Language:

TIGRISAT - Orbit

View from above orbital plane
View from above orbital plane
View from above satellite
View from above satellite

Ground track
Ground track

The orbit data is extracted from the following two-line orbital elements,

1 40043U 14033AK  19345.06968910  .00000093  00000-0  21269-4 0  9999
2 40043  97.7311 205.1860 0058575 250.2760 109.2125 14.74320449294446
Epoch (UTC): 11 December 2019 01:40:21
Eccentricity: 0.0058575
inclination: 97.7311°
perigee height: 606 km
apogee height: 688 km
right ascension of ascending node: 205.1860°
argument of perigee: 250.2760°
revolutions per day: 14.74320449
mean anomaly at epoch: 109.2125°
orbit number at epoch: 29444

The dashed part of the orbit path shows where the satellite is in the earth's shadow,  

DLR